RH
76 79 87 92 93 89 88 89 89 88 83 71 69 84 86 86 80 78 81 85 89 80 72 62 67 73 88 75 69 70 64 62 63 76 64 64 75 84 90 90 87 86 85
73 83 88 91 93 91 91 93 91 88 85 85 87 89 84 86 87 86 88 90 86 79 77 70 68 67 61 87 81 80 80 82 68 57 50 69 78 75 75 68 64 61 57
77 86 89 90 95 96 85 98 99 94 92 92 88 88 90 88 89 90 89 90 91 90 86 84 77 76 77 68 84 83 90 94 91 85 67 48 43 46 48 49 51 50 47
77 93 92 89 93 88 86 97 100 98 97 94 95 97 100 99 99 97 98 95 97 97 87 87 79 76 86 64 88 78 85 88 86 85 80 56 58 43 44 41 30 31 40
80 93 96 98 93 90 90 94 98 98 98 96 96 96 98 99 100 99 87 84 87 86 72 74 72 75 83 58 75 81 82 88 86 85 81 65 44 46 38 37 71 42 31
99 99 98 97 93 91 90 90 97 96 91 84 82 89 85 87 80 76 77 78 81 80 81 79 69 74 84 72 57 66 81 89 85 83 87 62 40 48 45 35 55 77 42
97 98 98 91 91 92 88 90 93 99 99 98 97 94 87 76 73 76 75 75 74 74 75 80 80 83 86 82 78 76 70 77 84 82 92 80 85 51 49 40 56 78 60
90 98 96 90 91 96 95 88 92 96 99 99 98 96 93 83 76 75 73 74 73 74 73 77 77 79 83 88 77 77 75 76 75 78 86 84 89 86 57 50 40 69 77
97 100 96 91 93 98 96 94 92 98 100 100 94 92 83 79 76 75 72 72 70 72 74 75 78 82 87 94 93 81 78 80 76 71 77 80 87 90 90 76 62 45 73
98 100 98 96 95 94 99 99 100 100 100 100 91 76 79 79 77 68 53 44 40 38 43 58 73 80 86 91 92 92 86 82 79 74 78 81 80 90 94 92 81 68 48
99 99 98 97 95 91 96 98 95 100 99 99 92 84 80 73 57 48 45 44 39 34 30 27 28 50 79 88 93 99 99 96 87 83 82 81 80 72 89 91 81 71 66
100 100 96 92 93 89 89 90 87 92 98 100 98 88 76 55 48 45 42 40 36 34 30 23 21 19 25 65 91 100 99 98 99 94 89 85 82 75 75 94 84 82 76
100 100 100 96 92 92 87 91 92 90 94 98 95 78 58 43 38 36 38 38 37 29 22 16 14 12 13 19 55 98 98 96 98 98 97 98 91 87 86 88 89 79 87
98 99 99 100 91 94 91 90 92 91 89 92 90 62 40 33 30 31 34 32 27 21 15 11 8 7 7 8 21 57 94 98 98 98 97 97 96 99 100 94 94 92 93
98 98 98 100 97 93 96 96 92 90 89 85 69 46 32 27 30 29 25 21 16 11 8 6 5 4 4 4 9 34 60 79 97 99 99 98 95 96 100 100 100 100 99
99 98 98 97 95 96 95 96 96 86 87 70 37 29 29 25 22 22 17 12 10 8 7 6 5 4 3 3 3 5 10 22 39 62 93 100 100 99 98 99 100 99 100
94 99 99 98 99 99 98 91 90 88 86 72 34 25 23 22 19 16 12 10 9 8 7 6 5 4 4 4 3 3 4 5 10 22 43 72 100 99 99 99 99 99 99
83 100 99 97 99 99 98 96 87 86 86 49 24 20 18 16 15 12 10 10 9 7 7 6 5 5 5 5 4 4 5 4 5 8 15 36 63 99 98 97 95 95 87
78 90 98 97 99 99 97 95 90 86 81 37 22 17 16 14 13 12 11 10 9 8 7 6 6 6 6 6 6 6 8 6 5 5 6 8 17 40 80 99 99 100 98
80 87 99 97 100 100 100 96 88 82 69 30 22 17 16 14 13 12 11 10 9 8 7 6 6 8 8 7 9 10 12 12 12 10 10 9 7 8 11 20 42 89 93
89 95 96 100 99 100 99 93 84 77 55 32 22 18 15 14 12 11 10 10 8 8 7 6 6 7 10 11 13 16 16 16 17 14 12 12 11 10 9 8 7 7 7
80 94 99 100 100 97 93 90 87 77 47 32 24 19 15 14 13 12 11 10 9 8 7 6 7 7 8 11 16 23 30 25 20 19 18 15 13 11 10 9 8 7 7
83 92 99 98 96 92 87 82 68 48 40 33 27 21 17 15 14 13 12 10 9 8 8 7 7 8 7 13 18 21 34 40 43 36 30 23 17 13 12 10 10 8 7
66 78 86 89 87 84 80 74 61 47 39 36 31 25 20 18 16 15 13 11 10 10 9 8 8 10 10 8 15 23 28 32 36 37 36 33 21 18 16 15 13 11 9
63 68 75 76 74 72 70 68 57 44 40 38 36 28 24 20 18 15 14 12 11 10 9 9 8 8 11 12 12 11 16 26 29 34 39 39 37 35 31 25 17 14 13
66 65 67 69 68 66 64 58 52 47 45 42 37 29 25 22 20 17 15 13 12 11 10 10 10 10 10 11 11 12 13 14 16 18 37 42 38 36 32 30 22 20 19
Wind_Speed
20 24 23 21 18 17 17 17 18 18 17 16 15 13 12 11 11 12 13 14 14 16 13 14 16 12 12 13 14 15 17 17 17 17 18 17 16 16 17 18 20 20 18
23 27 24 24 19 20 21 21 22 20 19 17 16 15 13 13 14 14 15 15 16 13 16 17 13 8 13 13 14 16 17 16 16 15 13 14 14 13 12 13 13 14 14
23 29 26 24 22 21 20 21 23 21 20 19 16 15 17 16 16 17 16 14 14 12 12 12 15 14 9 14 12 16 17 15 14 12 13 11 12 10 11 11 9 10 11
23 31 29 26 24 21 21 19 21 20 19 18 16 16 16 16 18 20 20 21 20 19 18 17 11 9 6 11 14 16 16 13 10 11 10 8 10 11 11 11 11 10 8
24 32 29 26 25 22 21 21 18 17 17 17 16 15 15 15 15 15 14 15 16 14 13 12 10 8 6 10 14 15 15 14 11 10 8 9 8 10 10 11 12 12 12
29 29 27 27 25 23 20 19 19 17 16 16 16 15 14 13 12 10 10 9 9 12 12 12 12 10 6 10 14 15 16 14 11 8 10 12 10 9 9 10 11 12 13
26 26 26 27 25 23 21 21 19 18 17 16 14 14 13 13 12 12 12 11 10 9 10 12 13 13 9 12 16 14 12 11 13 10 9 11 11 8 9 9 10 11 12
21 27 25 24 25 22 21 20 18 18 17 17 17 16 14 15 14 13 13 12 11 12 11 10 12 12 12 13 16 15 11 8 8 11 9 13 13 9 8 8 8 9 10
26 29 26 24 25 23 20 20 18 19 20 21 20 19 16 13 10 10 9 8 8 9 11 11 11 12 13 13 17 16 13 10 8 10 13 11 14 15 10 8 8 7 8
30 30 28 26 26 27 23 22 23 24 25 26 23 16 11 11 11 10 9 10 9 9 9 10 10 12 14 15 15 16 14 12 10 9 11 13 8 11 13 9 8 7 6
29 31 30 29 30 29 31 31 30 31 29 21 16 14 13 14 13 12 11 9 9 10 9 9 9 9 12 15 16 14 13 12 11 10 9 9 8 6 9 7 8 8 6
33 32 33 33 33 31 28 27 27 24 16 15 15 12 14 15 15 14 12 11 10 9 9 9 10 10 11 11 12 13 14 12 11 11 10 9 7 6 5 5 5 5 6
36 35 34 35 32 31 28 26 25 24 17 17 15 14 16 15 15 14 13 11 11 10 10 11 11 12 11 12 13 15 15 14 14 9 8 7 6 5 7 6 4 4 5
37 37 36 36 35 31 28 27 25 22 16 16 16 16 15 15 14 13 12 10 10 9 11 12 12 12 13 14 14 16 18 16 14 11 12 10 9 16 12 6 5 5 5
37 37 37 37 33 31 29 27 26 23 17 16 18 18 16 15 13 12 11 10 9 9 9 10 11 12 12 13 14 15 16 16 16 14 13 13 13 14 14 16 15 14 12
37 39 38 36 33 32 29 27 25 21 17 17 17 17 16 14 13 13 12 11 11 11 10 10 10 10 11 12 13 14 14 15 16 17 17 15 15 15 16 18 20 18 17
36 38 38 36 33 32 30 28 24 20 18 18 18 17 16 16 15 14 13 12 12 11 10 10 10 11 10 11 11 12 13 14 15 15 16 18 16 15 16 19 19 20 19
32 38 37 36 35 32 31 27 25 22 19 19 20 19 18 17 16 14 13 13 12 12 11 11 11 11 11 11 10 11 11 12 13 14 15 17 20 19 17 18 18 19 20
29 33 37 35 35 34 30 26 23 22 21 20 20 19 19 17 16 15 14 13 13 12 11 10 10 9 10 9 9 9 9 11 12 12 13 15 18 20 22 21 19 18 18
27 28 36 35 35 33 30 27 24 22 22 20 19 18 17 16 15 14 14 13 13 12 12 12 12 12 11 10 9 8 7 7 7 7 9 11 13 16 17 18 21 25 25
28 30 32 36 35 34 32 30 27 24 22 20 19 18 17 16 15 14 13 12 12 11 11 11 11 11 11 10 9 8 7 6 5 6 7 7 8 10 11 11 13 14 15
29 29 31 31 32 33 32 28 25 25 22 20 20 18 17 16 15 15 14 14 13 12 12 11 11 11 12 12 9 8 6 5 5 3 4 5 6 6 7 7 8 10 11
28 29 30 30 28 27 25 25 24 23 22 21 20 19 18 17 15 13 12 11 11 11 10 11 11 12 13 14 12 7 6 5 7 4 3 4 5 4 5 5 5 6 7
23 25 26 26 24 23 23 24 26 27 26 22 20 19 18 16 14 13 12 11 10 10 9 9 9 9 10 11 12 11 8 8 6 6 4 3 2 2 3 5 5 5 6
19 21 22 22 21 21 21 22 25 25 22 21 19 19 18 17 15 13 11 10 9 9 9 8 8 8 8 7 9 10 10 10 9 7 7 6 4 2 0 2 5 5 6
16 18 19 20 19 19 19 21 23 24 23 22 22 21 19 18 16 14 12 11 10 9 9 9 9 8 8 8 8 9 9 9 9 7 8 8 5 5 4 5 4 5 5
Wind_Direction
163 168 160 147 147 146 142 137 134 135 136 138 142 133 129 123 127 132 136 139 137 115 137 123 94 80 89 106 108 104 99 97 95 96 101 104 100 98 100 103 105 101 97
161 170 159 152 154 158 150 142 139 138 136 134 131 125 123 123 123 130 130 131 133 120 118 122 122 119 101 96 106 101 96 94 95 94 98 105 102 99 109 110 107 108 103
168 170 165 159 160 160 164 151 144 143 143 138 130 124 123 122 123 124 130 131 135 130 129 136 128 117 102 108 114 110 107 102 99 94 93 97 104 102 104 115 108 103 104
172 172 166 172 173 173 173 167 155 154 150 147 144 143 134 134 135 132 127 127 125 121 114 118 112 126 109 136 129 124 120 109 108 105 86 88 104 102 103 105 106 103 105
173 175 173 173 179 180 178 182 165 166 163 165 159 158 162 159 155 159 156 145 142 131 124 136 115 132 98 133 135 136 132 126 125 118 112 89 101 98 94 97 98 96 96
169 173 178 179 184 187 185 187 173 162 165 168 167 169 175 176 178 179 168 154 147 146 151 154 127 141 151 147 147 152 151 146 149 137 105 100 97 94 91 96 99 94 95
168 171 179 183 184 188 184 179 172 167 168 167 166 172 180 184 191 184 183 180 172 169 167 167 168 168 174 161 161 169 158 145 164 151 122 107 91 90 98 96 105 108 99
177 171 178 187 190 182 178 182 175 174 175 179 166 165 186 197 196 194 191 191 181 180 185 180 171 167 169 171 173 179 169 162 162 161 142 117 99 97 101 103 103 111 112
173 176 180 183 189 184 179 181 180 178 177 190 199 199 205 208 203 196 188 179 169 172 177 184 179 178 171 169 176 182 181 180 181 174 151 127 111 99 102 108 112 112 122
174 177 181 182 186 191 182 178 173 170 176 175 205 212 207 206 205 192 173 158 160 159 160 168 175 177 179 179 181 184 189 193 190 183 165 156 152 130 110 100 109 115 123
178 185 189 188 193 192 193 189 186 180 181 196 211 205 198 190 186 185 182 178 174 172 174 178 182 186 187 190 189 187 191 198 201 193 178 183 171 189 150 131 102 104 115
182 184 196 197 200 201 203 201 204 203 208 224 220 201 188 188 187 188 189 189 188 193 192 189 192 191 194 197 198 192 197 199 205 204 195 202 194 193 208 165 145 117 107
183 191 197 205 208 207 207 206 202 212 237 232 215 199 190 188 187 186 190 193 195 195 194 197 194 195 196 196 196 192 204 205 210 205 185 179 187 182 185 208 185 168 151
186 193 197 200 208 207 207 207 209 214 230 230 211 205 200 196 192 196 198 198 195 194 192 187 191 196 196 194 197 204 200 201 211 212 212 209 175 129 136 139 169 178 178
191 197 202 204 208 209 207 203 205 213 224 218 210 202 199 201 204 201 195 198 193 186 184 187 182 182 186 189 189 193 200 203 203 199 209 218 212 204 167 145 149 158 180
196 200 204 208 212 212 212 208 209 214 217 216 210 205 207 203 203 202 197 192 191 190 189 186 188 189 191 192 196 195 199 205 204 206 199 187 195 209 202 180 171 176 174
201 200 205 206 206 208 209 213 214 217 223 216 209 205 204 205 206 205 198 194 193 193 195 191 188 188 189 187 189 195 199 207 206 209 209 203 197 206 206 209 208 197 194
206 202 207 207 207 205 209 208 217 216 217 210 205 204 202 203 203 202 199 197 194 191 190 190 189 189 188 186 187 191 197 205 214 214 214 209 210 206 209 211 214 217 220
206 206 206 209 206 206 209 211 211 215 216 210 205 202 203 202 201 200 201 198 196 194 193 191 189 190 188 190 195 191 194 199 208 212 218 215 217 222 220 219 220 225 219
209 206 208 208 207 206 205 208 208 208 210 207 204 204 205 204 202 200 199 198 198 196 192 192 192 186 185 183 182 182 190 204 207 208 207 211 216 222 225 226 228 231 237
202 202 206 207 208 211 209 208 205 207 206 202 201 201 201 200 197 197 199 195 193 195 194 189 194 189 182 184 173 164 168 183 208 225 223 217 215 219 223 225 229 234 236
201 204 202 205 208 214 219 217 219 211 204 205 199 196 197 197 195 194 194 193 190 191 191 186 185 187 185 184 180 166 158 181 198 215 251 247 242 237 237 235 232 231 235
195 199 201 203 208 213 214 212 203 199 197 195 193 193 192 194 194 192 191 191 188 185 188 187 185 183 189 184 186 181 167 181 169 187 230 264 269 264 263 255 249 248 247
196 203 205 209 213 216 214 209 205 202 197 197 199 191 189 189 189 186 188 186 183 181 181 185 187 185 187 187 186 191 182 164 169 172 163 130 183 255 266 275 269 260 251
192 199 206 210 215 214 209 210 209 207 206 200 198 194 188 185 187 183 180 180 179 176 176 176 183 189 184 191 191 186 185 187 185 174 162 174 174 191 210 302 280 266 272
184 194 201 204 204 204 202 203 210 208 202 199 198 196 189 185 181 178 177 175 176 174 173 172 174 181 183 183 181 181 188 192 190 190 170 173 188 245 290 316 275 268 266